Tinker AFB, OK

2:27 PM CDT on May 22, 2017 (GMT -0500)
Tinker Air Force Base

Weather History for KTIK - November, 2014

Change the Weather History Date:

Friday, November 7, 2014

  Actual Average Record
Temperature  
Mean Temperature 54 °F -  
Max Temperature 68 °F 58 °F 89 °F (2000)
Min Temperature 39 °F 42 °F 30 °F (1997)
Degree Days  
Heating Degree Days 12    
Growing Degree Days 4 (Base 50)    
Moisture  
Dew Point 35 °F    
Average Humidity 52    
Maximum Humidity 77    
Minimum Humidity 32    
Precipitation  
Precipitation 0.00 in - - ()
Sea Level Pressure  
Sea Level Pressure 30.11 in    
Wind  
Wind Speed 11 mph (South)    
Max Wind Speed 22 mph    
Max Gust Speed 29 mph    
Visibility 10 miles    
Events      
Averages and records for this station are not official NWS values.
T = Trace of Precipitation, MM = Missing Value Source: NWS Daily Summary

Daily Weather History Graph

Daily Weather History Graph

Search for Another Location

Airport or City:

Trip Planner

Search our weather history database for the weather conditions in past years. The results will help you decide how hot, cold, wet, or windy it might be!

Date:

Astronomy

Nov. 07, 2014 Rise Set
Actual Time 6:56 AM CST 5:29 PM CST
Civil Twilight 6:30 AM CST 5:55 PM CST
Nautical Twilight 6:00 AM CST 6:25 PM CST
Astronomical Twilight 5:30 AM CST 6:55 PM CST
Moon 6:23 PM CST (11/7) 7:33 AM CST (11/7)
Length of Visible Light 11h 25m
Length of Day
10h 32m
Full, 99% of the Moon is Illuminated
Nov 7
Full
Nov 14
Last Quarter
Nov 22
New
Nov 29
First Quarter
Dec 6
Full

Hourly Weather History & Observations

Time (CST) Temp. Windchill Dew Point Humidity Pressure Visibility Wind Dir Wind Speed Gust Speed Precip Events Conditions
12:58 AM 45.3 °F 41.1 °F 27.7 °F 50% 30.31 in 10.0 mi ESE 8.1 mph - N/A   Clear
1:58 AM 41.9 °F 39.0 °F 31.1 °F 66% 30.30 in 10.0 mi South 4.6 mph - N/A   Clear
2:58 AM 41.4 °F 37.6 °F 31.1 °F 67% 30.28 in 10.0 mi South 5.8 mph - N/A   Clear
3:58 AM 39.4 °F 33.8 °F 32.7 °F 77% 30.25 in 10.0 mi South 8.1 mph - N/A   Clear
4:58 AM 40.6 °F 34.8 °F 32.0 °F 71% 30.23 in 10.0 mi South 9.2 mph - N/A   Clear
5:58 AM 41.4 °F 35.7 °F 31.3 °F 67% 30.23 in 10.0 mi South 9.2 mph - N/A   Clear
6:58 AM 40.8 °F 34.5 °F 30.4 °F 66% 30.23 in 10.0 mi South 10.4 mph - N/A   Clear
7:58 AM 43.5 °F 37.5 °F 30.9 °F 61% 30.24 in 10.0 mi South 11.5 mph - N/A   Clear
8:58 AM 49.5 °F - 30.9 °F 49% 30.22 in 10.0 mi South 12.7 mph - N/A   Clear
9:58 AM 55.0 °F - 26.4 °F 33% 30.20 in 10.0 mi South 15.0 mph 25.3 mph N/A   Clear
10:58 AM 58.5 °F - 30.7 °F 35% 30.15 in 10.0 mi South 15.0 mph 27.6 mph N/A   Clear
11:58 AM 61.7 °F - 31.1 °F 32% 30.10 in 10.0 mi South 17.3 mph - N/A   Clear
12:58 PM 64.9 °F - 34.3 °F 32% 30.05 in 10.0 mi South 20.7 mph 28.8 mph N/A   Clear
1:58 PM 66.6 °F - 37.4 °F 34% 30.01 in 10.0 mi South 21.9 mph 26.5 mph N/A   Clear
2:58 PM 68.0 °F - 37.2 °F 32% 30.00 in 10.0 mi South 18.4 mph 24.2 mph N/A   Clear
3:58 PM 68.0 °F - 37.4 °F 33% 29.98 in 10.0 mi South 17.3 mph - N/A   Clear
4:58 PM 66.4 °F - 39.0 °F 37% 29.95 in 10.0 mi South 15.0 mph - N/A   Clear
5:58 PM 62.2 °F - 39.9 °F 44% 29.96 in 10.0 mi South 15.0 mph - N/A   Clear
6:58 PM 59.2 °F - 40.6 °F 50% 29.97 in 10.0 mi South 11.5 mph - N/A   Clear
7:58 PM 56.3 °F - 40.8 °F 56% 29.97 in 10.0 mi South 10.4 mph - N/A   Clear
8:58 PM 55.4 °F - 40.5 °F 57% 29.98 in 10.0 mi South 12.7 mph - N/A   Clear
9:58 PM 54.5 °F - 41.0 °F 60% 29.99 in 10.0 mi South 10.4 mph - N/A   Clear
10:58 PM 52.3 °F - 41.4 °F 66% 29.99 in 10.0 mi South 9.2 mph - N/A   Clear
11:58 PM 50.7 °F - 41.4 °F 70% 29.99 in 10.0 mi SSW 5.8 mph - N/A   Clear